Regional Weather Roundup
Issued by NWS

Home | Current Version | Previous Version | Graphics & Text | Print | Product List | Glossary On
Versions: 1 2 3 4 5 6 7 8 9 10 11 12 13 14 15 16 17 18 19 20 21 22 23 24 25 26 27 28 29 30 31 32 33 34 35 36 37 38 39 40 41 42 43 44 45 46 47 48 49 50
000
ASUS43 KOAX 290410
RWRNE

WEATHER ROUNDUP FOR NEBRASKA
NATIONAL WEATHER SERVICE OMAHA NE
1100 PM CDT WED SEP 28 2016

NOTES: SATELLITE DATA IS BEING USED TO AUGMENT CLOUD COVER ABOVE
       12000 FEET.
       "FAIR" INDICATES FEW OR NO CLOUDS BELOW 12,000 FEET WITH NO
       SIGNIFICANT WEATHER AND/OR OBSTRUCTIONS TO VISIBILITY.

  * THESE STATIONS DO NOT REPORT WEATHER SUCH AS RAIN...SNOW OR FOG.

NEZ001>004-019>022-054>056-290500-
NEBRASKA PANHANDLE

CITY           SKY/WX    TMP DP  RH WIND       PRES   REMARKS
SCOTTSBLUFF    CLEAR     62  43  49 E15       30.33R
ALLIANCE       CLEAR     51  43  74 E9        30.35R
CHADRON        CLEAR     61  41  47 E7        30.32R
KIMBALL        CLEAR     57  39  51 SE9       30.38R
SIDNEY         CLEAR     56  39  53 SE10      30.37R
$$

NEZ057>060-069>072-079>082-290500-
SOUTHWEST NEBRASKA

CITY           SKY/WX    TMP DP  RH WIND       PRES   REMARKS
NORTH PLATTE   CLEAR     46  35  65 E6        30.35R
IMPERIAL       CLEAR     53  38  56 E7        30.35R
LEXINGTON      CLEAR     51  42  72 E3        30.35R
MCCOOK         CLEAR     53  37  54 E5        30.34R
OGALLALA       CLEAR     55  41  58 E5        30.35R
$$

NEZ005>010-023>029-035>040-094-290500-
NORTH CENTRAL NEBRASKA

CITY           SKY/WX    TMP DP  RH WIND       PRES   REMARKS
VALENTINE      CLEAR     50  42  74 E7        30.36R
AINSWORTH      CLEAR     46  42  85 E6        30.36S
BROKEN BOW     CLEAR     53  42  66 E5        30.35R
O`NEILL        CLOUDY    47  42  84 CALM      30.37R
ORD            LGT RAIN  46  39  76 CALM      30.35R
THEDFORD       CLEAR     50  40  69 CALM      30.37R
$$

NEZ041-046>049-061>064-073>077-083>087-290500-
SOUTH CENTRAL NEBRASKA

CITY           SKY/WX    TMP DP  RH WIND       PRES   REMARKS
GRAND ISLAND   CLEAR     50  42  74 NE3       30.36R
AURORA         CLEAR     47  44  88 E6        30.35R
HASTINGS       CLEAR     50  41  71 E3        30.35R
HEBRON         CLEAR     49  43  79 CALM      30.34R
HOLDREGE       CLEAR     50  40  69 E5        30.34R
KEARNEY *      CLEAR     50  39  66 NE6       30.34R
YORK           CLEAR     48  45  87 NE6       30.35S
$$

NEZ011>018-030>034-042>045-290500-
NORTHEAST NEBRASKA

CITY           SKY/WX    TMP DP  RH WIND       PRES   REMARKS
NORFOLK        CLEAR     50  43  77 E5        30.36R
ALBION         CLOUDY    50  43  76 E6        30.37R
BLAIR          CLEAR     53  47  81 N6        30.33R
FREMONT        CLEAR     48  44  87 W3        30.35R
TEKAMAH        CLEAR     47  44  90 N7        30.34R
WAYNE          CLEAR     43  41  94 CALM      30.38R
$$

NEZ050>053-065>068-078-088>093-290500-
SOUTHEAST NEBRASKA

CITY           SKY/WX    TMP DP  RH WIND       PRES   REMARKS
LINCOLN        CLEAR     50  45  83 N7        30.35R
OMAHA EPPLEY   CLEAR     50  45  83 N5        30.33R
BEATRICE       CLEAR     50  46  87 NE6       30.32S
FALLS CITY     MOCLDY    55  50  83 NW5       30.30R
NEBRASKA CITY  CLEAR     52  45  78 N3        30.32R
PLATTSMOUTH    CLEAR     53  45  74 CALM      30.33R
$$

NEZ044-045-051>053-067-290500-
OMAHA AREA

CITY           SKY/WX    TMP DP  RH WIND       PRES   REMARKS
OMAHA EPPLEY   CLEAR     50  45  83 N5        30.33R
BLAIR          CLEAR     53  47  81 N6        30.33R
FREMONT        CLEAR     48  44  87 W3        30.35R
MILLARD        CLEAR     54  48  81 CALM      30.33R
OFFUTT AFB     CLEAR     51  48  92 NW3       30.32R
PLATTSMOUTH    CLEAR     53  45  74 CALM      30.33R
WAHOO          FAIR      51  46  82 NW6       30.35R
$$



USA.gov is the U.S. government's official web portal to all federal, state and local government web resources and services.